Regional Weather Roundup
Issued by NWS

Home | Current Version | Previous Version | Text Only | Print | Product List | Glossary Off
Versions: 1 2 3 4 5 6 7 8 9 10 11 12 13 14 15 16 17 18 19 20 21 22 23 24 25 26 27 28 29 30 31 32 33 34 35 36 37 38 39 40 41 42 43 44 45 46 47 48 49 50

628
ASUS43 KFSD 221410
RWRSD

WEATHER ROUNDUP FOR SOUTH DAKOTA
NATIONAL WEATHER SERVICE SIOUX FALLS SD
800 AM CST WED NOV 22 2017

NOTE: "FAIR" INDICATES FEW OR NO CLOUDS BELOW 12,000 FEET WITH NO
SIGNIFICANT WEATHER AND/OR OBSTRUCTIONS TO VISIBILITY.


SDZ001>005-009-010-012>017-221500-
NORTHWEST AND NORTH CENTRAL SOUTH DAKOTA

CITY           SKY/WX    TMP DP  RH WIND       PRES   REMARKS
BUFFALO          N/A     30  21  69 NW3       29.89R
FAITH            N/A     21  15  78 S14       29.98F WCI   8
MOBRIDGE       CLOUDY    25  16  68 S15       30.01F WCI  13
$$

SDZ012>016-024>037-041>051-057-063-072>074-221500-
SOUTHWEST AND SOUTH CENTRAL SOUTH DAKOTA

CITY           SKY/WX    TMP DP  RH WIND       PRES   REMARKS
RAPID CTY ARPT CLOUDY    31  23  72 CALM      30.01F
PIERRE         CLOUDY    20  15  81 SE9       30.06F WCI   9
CUSTER         CLOUDY    40  24  53 SW5       30.08S
ELLSWORTH AFB  CLOUDY    34  25  70 W7        30.00F WCI  28
PHILIP         CLOUDY    22  20  92 CALM      30.03F
PINE RIDGE     CLOUDY    32  27  81 W5        30.09S WCI  27
SPEARFISH      FAIR      52  32  46 W13       30.01S
WINNER         FAIR      31  20  63 S13       30.09F WCI  21
$$

SDZ004>011-016>023-039-040-221500-
NORTHEAST SOUTH DAKOTA

CITY           SKY/WX    TMP DP  RH WIND       PRES   REMARKS
ABERDEEN       CLOUDY    15  11  83 S13       30.14F WCI   1
WATERTOWN      CLOUDY    16  12  84 S13       30.16F WCI   2
BROOKINGS      CLOUDY    15   9  76 S10       30.22F WCI   2
SISSETON         N/A     15  10  80 SE9       30.18F WCI   3
$$

SDZ017-020-022-023-036>040-048>070-221500-
SOUTHEAST SOUTH DAKOTA

CITY           SKY/WX    TMP DP  RH WIND       PRES   REMARKS
SIOUX FALLS    CLOUDY    19  11  70 S9        30.27F WCI   8
HURON          CLOUDY    15  11  83 S12       30.19F WCI   2
CHAMBERLAIN    CLOUDY    24  19  80 SE10      30.11F WCI  14
MITCHELL       CLEAR     17  11  77 SE9       30.23F WCI   6
YANKTON        CLOUDY    13   9  84 E3        30.29F
$$

ABBREVIATIONS USED IN REMARKS
   TC - TEMPERATURE IN CELSIUS
  WCI - WIND CHILL INDEX
   HX - HEAT INDEX
  VSB - VISIBILITY





USA.gov is the U.S. government's official web portal to all federal, state and local government web resources and services.